Location: downtown San Diego
(32.7310°N, 117.1990°W)
Time: 16:19:31
(UTC-07:00)

Cosmos 405 Rocket - Pass Details

Date: 12 July 2018
Orbit: 490 x 557 km, 81.3° (Epoch: 17 July)

Event Time Altitude Azimuth Distance (km) Brightness Sun altitude
Rises 21:37:17 0° 345° (NNW) 2,646 7.3 -17.9°
Reaches altitude 10° 21:39:27 10° 340° (NNW) 1,766 6.3 -18.3°
Maximum altitude 21:43:13 50° 265° (W) 683 3.5 -18.8°
Enters shadow 21:45:22 23° 200° (SSW) 1,160 4.2 -19.2°
